EW5413 Weather Reports


time (UTC)temp
F
wind
direction
speed
knots
gust
knots
rain 1hr
in
rain 24hr
in
rain mn
in
humidity
%
barometer
mb
20260506235028 46 113 5.2 10.4 0.00 0.01 0.00 68 1009.4
20260506234019 46 113 8.7 13.9 0.00 0.01 0.00 67 1009.6
20260506233019 46 113 7.0 11.3 0.00 0.01 0.00 67 1009.8
20260506232027 46 113 7.8 13.0 0.00 0.01 0.00 66 1010.0
20260506231020 46 113 8.7 15.6 0.00 0.01 0.00 66 1009.9
20260506230019 45 113 7.8 12.2 0.00 0.01 0.01 67 1009.8
20260506225029 45 113 7.8 13.9 0.00 0.01 0.01 67 1009.8
20260506224027 45 113 7.0 11.3 0.00 0.01 0.01 68 1010.1
20260506223238 46 113 10.4 13.9 0.00 0.01 0.01 65 1010.0
20260506222019 45 135 7.0 12.2 0.00 0.01 0.01 68 1010.1
20260506221019 45 113 8.7 13.0 0.00 0.01 0.01 68 1010.3
20260506220048 45 113 7.8 12.2 0.00 0.01 0.01 69 1010.3
20260506215040 45 113 7.8 13.9 0.00 0.01 0.01 69 1010.5
20260506214019 45 113 9.6 12.2 0.00 0.01 0.01 71 1010.5
20260506213028 45 113 8.7 13.0 0.00 0.01 0.01 72 1010.5
20260506212019 45 113 9.6 13.0 0.00 0.01 0.01 71 1010.7
20260506211019 45 113 11.3 16.5 0.00 0.01 0.01 72 1010.7
20260506210019 45 180 0.9 6.1 0.00 0.01 0.01 75 1010.6
20260506205028 45 158 1.7 5.2 0.00 0.01 0.01 74 1010.6
20260506204019 45 158 4.3 7.0 0.00 0.01 0.01 74 1010.7
20260506203036 45 180 4.3 6.1 0.00 0.01 0.01 75 1010.7
20260506202019 44 158 3.5 7.8 0.00 0.01 0.01 78 1010.7
20260506201031 44 0.0 0.0 0.00 0.01 0.01 79 1010.9
20260506200019 44 0.0 0.0 0.00 0.01 0.01 79 1010.9
20260506195019 44 0.0 0.0 0.00 0.01 0.01 78 1010.9
20260506194039 44 0.0 0.0 0.00 0.01 0.01 78 1011.1
20260506193028 44 113 0.9 1.7 0.00 0.01 0.01 78 1011.0
20260506192019 44 0.0 0.0 0.01 0.01 0.01 77 1011.3
20260506191027 44 0.0 2.6 0.01 0.01 0.01 76 1011.3
20260506190019 44 113 0.9 3.5 0.01 0.01 0.01 75 1011.5
20260506185036 44 0.0 0.0 0.01 0.01 0.01 74 1011.8
20260506184028 44 113 1.7 2.6 0.01 0.01 0.01 73 1011.9
20260506183020 45 113 4.3 7.0 0.01 0.01 0.01 71 1012.0
20260506182028 46 113 2.6 7.0 0.00 0.00 0.00 69 1012.0
20260506181019 47 0.0 0.9 0.00 0.00 0.00 68 1012.0
20260506180019 48 0.0 3.5 0.00 0.00 0.00 67 1011.9
20260506175018 48 338 0.9 1.7 0.00 0.00 0.00 66 1011.9
20260506174018 49 315 0.9 4.3 0.00 0.00 0.00 63 1011.8
20260506173019 49 45 0.9 3.5 0.00 0.00 0.00 61 1011.7
20260506172028 49 338 1.7 3.5 0.00 0.00 0.00 58 1011.7
20260506171027 49 315 1.7 3.5 0.00 0.00 0.00 58 1011.6
20260506170019 49 315 1.7 4.3 0.00 0.00 0.00 58 1011.6
20260506165019 49 315 2.6 5.2 0.00 0.00 0.00 58 1011.8
20260506164023 50 293 1.7 5.2 0.00 0.00 0.00 57 1011.8
20260506163036 50 315 2.6 6.1 0.00 0.00 0.00 58 1011.8
20260506162019 50 315 4.3 8.7 0.00 0.00 0.00 56 1011.9
20260506161019 50 315 3.5 7.0 0.00 0.00 0.00 57 1011.9
20260506160019 51 293 2.6 5.2 0.00 0.00 0.00 58 1012.0
20260506155029 51 315 2.6 5.2 0.00 0.00 0.00 57 1012.0
20260506154021 51 315 2.6 6.1 0.00 0.00 0.00 57 1011.9
20260506153020 52 293 2.6 6.1 0.00 0.00 0.00 55 1012.2
20260506152029 52 315 4.3 7.0 0.00 0.00 0.00 52 1012.0
20260506151029 52 293 4.3 7.0 0.00 0.00 0.00 52 1012.2
20260506150029 51 315 4.3 7.0 0.00 0.00 0.00 53 1012.3
20260506145019 52 293 2.6 6.1 0.00 0.00 0.00 53 1012.4
20260506144042 52 293 1.7 6.1 0.00 0.00 0.00 51 1012.6
20260506143040 52 315 3.5 7.8 0.00 0.00 0.00 52 1012.6
20260506142044 52 293 4.3 9.6 0.00 0.00 0.00 52 1012.7
20260506141019 51 315 2.6 6.1 0.00 0.00 0.00 55 1012.8
20260506140021 51 315 4.3 7.0 0.00 0.00 0.00 53 1012.9
20260506135029 51 293 4.3 7.8 0.00 0.00 0.00 54 1013.0
20260506134029 51 315 5.2 7.8 0.00 0.00 0.00 54 1013.0
20260506133021 51 315 3.5 7.8 0.00 0.00 0.00 54 1013.1
20260506132049 51 293 3.5 7.0 0.00 0.00 0.00 58 1013.2
20260506131020 51 315 4.3 7.0 0.00 0.00 0.00 56 1013.2
20260506130036 51 315 3.5 7.0 0.00 0.00 0.00 56 1013.3
20260506125018 51 315 4.3 7.8 0.00 0.00 0.00 56 1013.2
20260506124018 51 315 3.5 7.0 0.00 0.00 0.00 56 1013.4
20260506123022 50 315 4.3 7.0 0.00 0.00 0.00 56 1013.5
20260506122029 50 315 3.5 6.1 0.00 0.00 0.00 57 1013.5
20260506121020 50 315 4.3 8.7 0.00 0.00 0.00 56 1013.6
20260506120029 51 293 4.3 7.0 0.00 0.00 0.00 55 1013.6
20260506115030 50 315 4.3 7.0 0.00 0.00 0.00 52 1013.7
20260506114040 50 315 3.5 6.1 0.00 0.00 0.00 53 1013.7
20260506113021 49 315 3.5 7.8 0.00 0.00 0.00 55 1013.7
20260506112041 49 315 3.5 6.1 0.00 0.00 0.00 54 1013.7
20260506111020 50 293 3.5 6.1 0.00 0.00 0.00 53 1014.0
20260506110020 49 293 3.5 7.0 0.00 0.00 0.00 55 1014.1
20260506105040 48 315 4.3 8.7 0.00 0.00 0.00 55 1014.0
20260506104120 48 315 3.5 6.1 0.00 0.00 0.00 56 1014.0
20260506103020 48 293 3.5 7.0 0.00 0.00 0.00 56 1014.0
20260506102029 48 315 4.3 7.0 0.00 0.00 0.00 57 1014.0
20260506101021 48 315 4.3 7.8 0.00 0.00 0.00 56 1014.2
20260506100041 48 315 2.6 5.2 0.00 0.00 0.00 57 1014.2
20260506095020 48 293 2.6 4.3 0.00 0.00 0.00 55 1014.3
20260506094029 47 315 1.7 4.3 0.00 0.00 0.00 58 1014.2
20260506093021 47 315 2.6 4.3 0.00 0.00 0.00 57 1014.4
20260506092029 47 293 0.9 3.5 0.00 0.00 0.00 56 1014.4
20260506091031 46 293 1.7 3.5 0.00 0.00 0.00 57 1014.4
20260506090021 46 315 1.7 3.5 0.00 0.00 0.00 59 1014.7
20260506085021 45 315 1.7 3.5 0.00 0.00 0.00 61 1014.8
20260506084028 45 293 2.6 5.2 0.00 0.00 0.00 61 1014.9
20260506083032 45 293 3.5 5.2 0.00 0.00 0.00 63 1015.2
20260506082049 45 315 1.7 3.5 0.00 0.00 0.00 67 1015.1
20260506081031 44 158 0.9 3.5 0.00 0.00 0.00 70 1015.1
20260506073029 40 0.0 0.9 0.00 0.00 0.00 81 1015.1
20260506072020 38 0.0 0.0 0.00 0.00 0.00 82 1015.2
20260506071020 38 0.0 0.0 0.00 0.00 0.00 83 1015.2
20260506062029 33 0.0 0.0 0.00 0.00 0.00 85 1015.3
20260506061028 33 0.0 0.0 0.00 0.00 0.00 84 1015.3
20260506051033 30 0.0 0.0 0.00 0.00 0.00 84 1015.6
20260506045028 30 0.0 0.0 0.00 0.00 0.00 84 1015.8
20260506044030 30 0.0 0.0 0.00 0.00 0.00 83 1015.8
20260506043031 30 0.0 0.0 0.00 0.00 0.00 84 1015.9
20260506042020 30 0.0 0.0 0.00 0.00 0.00 83 1015.8
20260506041021 30 0.0 0.0 0.00 0.00 0.00 83 1015.8
20260506040028 30 0.0 0.0 0.00 0.00 0.00 83 1015.8
20260506035048 30 0.0 0.0 0.00 0.00 0.00 83 1015.9
20260506034020 30 0.0 0.0 0.00 0.00 0.00 83 1016.0
20260506033049 31 0.0 0.0 0.00 0.00 0.00 83 1016.1
20260506032020 31 0.0 0.0 0.00 0.00 0.00 82 1016.2
20260506031019 31 0.0 0.0 0.00 0.00 0.00 82 1016.2
20260506030019 31 0.0 0.0 0.00 0.00 0.00 82 1016.4
20260506025028 31 0.0 0.0 0.00 0.00 0.00 82 1016.4
20260506024019 31 0.0 0.0 0.00 0.00 0.00 82 1016.4
20260506023019 31 0.0 0.0 0.00 0.00 0.00 82 1016.4
20260506022028 31 0.0 0.0 0.00 0.00 0.00 82 1016.4
20260506021040 31 0.0 0.0 0.00 0.00 0.00 81 1016.4
20260506020019 32 0.0 0.0 0.00 0.00 0.00 81 1016.5
20260506015028 32 0.0 0.0 0.00 0.00 0.00 81 1016.5
20260506014041 32 0.0 0.0 0.00 0.00 0.00 81 1016.6
20260506013019 32 0.0 0.0 0.00 0.00 0.00 81 1016.5
20260506012020 32 0.0 0.0 0.00 0.00 0.00 80 1016.6
20260506011028 33 0.0 0.0 0.00 0.00 0.00 80 1016.6
20260506010028 33 0.0 0.0 0.00 0.00 0.00 80 1016.7
20260506005019 33 0.0 0.0 0.00 0.00 0.00 80 1016.7
20260506004029 34 0.0 0.0 0.00 0.00 0.00 80 1016.7
20260506003028 34 0.0 0.0 0.00 0.00 0.00 80 1016.7
20260506002027 34 0.0 0.0 0.00 0.00 0.00 79 1016.8
20260506001019 34 0.0 0.0 0.00 0.00 0.00 79 1016.9
20260506000019 34 0.0 0.0 0.00 0.00 0.00 79 1016.9